Location: *
(43.4667°N, 11.6833°E)
Time: 06:45:17
(UTC+00:00)

USA 267 - Pass Details

Date: 19 July 2019
Orbit: 1098 x 1109 km, 123.0° (Epoch: 24 August)

Event Time Altitude Azimuth Distance (km) Brightness Sun altitude
Exits shadow 21:49:52 26° 205° (SSW) 1,991 4.2 -22.5°
Maximum altitude 21:51:42 31° 233° (SW) 1,842 4.3 -22.7°
Drops below altitude 10° 21:57:22 10° 293° (WNW) 2,966 6.1 -23.0°
Sets 22:00:13 0° 304° (NW) 3,929 7.0 -23.2°
